Voltar ao catálogo

COSMOS 675

AtivoMilitarLEO
NORAD 7424·PAYLOAD·🇷🇺 Russia

Lançado Aug 29, 1974 de Plesetsk Cosmodrome

Loading…

Próximas Passagens (próximas 24 horas)

TLE

AtualizadoSource: Space-Track

Época: Sep 14, 2026, 13:06 UTC

1 07424U 74069A   26257.54611063 -.00000016  00000-0  15165-6 0  9993
2 07424  74.0560 101.8492 0038104 168.7076 219.7957 12.67187503407514

Acompanhe COSMOS 675 em tempo real com AllMySat

Download on the App Store